Theta_e
354 353 354 354 353 353 355 360 358 357 352 353 353 354 352 349 349 347 345 339 330 330 331 327 325 325 325 327 327 327 328 332 323 320 322 322 325 324 325 325 324 324 323
356 357 358 358 359 358 358 358 358 358 352 352 353 353 353 349 349 349 347 341 329 329 325 326 324 323 323 324 325 326 327 326 322 324 324 325 324 325 326 323 323 323 323
359 359 360 360 360 359 359 358 360 359 353 354 353 352 353 349 349 349 346 340 334 324 318 322 323 323 320 321 325 323 323 323 324 323 324 324 323 322 321 323 321 322 323
360 361 361 360 358 358 359 359 361 360 354 355 354 353 353 349 349 349 346 340 329 324 322 324 324 324 323 323 324 324 323 323 324 325 324 324 322 317 317 321 318 321 320
360 360 360 359 360 360 362 361 358 361 355 356 354 354 354 350 349 348 346 339 331 324 324 325 324 324 324 324 323 324 325 324 323 325 326 324 322 315 313 319 316 318 321
361 360 359 361 362 362 362 362 361 361 357 357 355 356 355 351 350 348 346 340 331 323 325 326 326 327 326 326 326 327 325 324 326 324 324 324 324 316 314 316 317 317 317
361 359 360 361 361 362 362 362 362 361 360 359 358 357 356 352 350 349 345 340 332 322 324 325 326 326 325 327 326 326 327 326 325 324 324 322 317 315 315 317 316 316 317
361 362 365 363 361 362 362 362 361 360 359 359 359 357 355 353 351 349 345 341 328 320 324 325 324 323 324 324 324 319 323 325 324 322 316 317 316 316 317 317 317 316 315
361 363 363 365 365 364 363 362 360 358 358 359 358 357 355 354 351 348 346 336 322 321 324 325 322 318 319 316 317 318 318 320 323 324 319 319 317 317 317 318 317 315 314
361 362 363 363 364 364 364 362 361 359 358 357 358 356 354 353 349 344 343 337 321 322 324 324 318 317 316 316 325 326 326 323 320 320 320 319 320 321 320 319 318 316 315
359 362 362 362 362 361 360 357 357 357 358 358 357 354 353 352 347 342 343 341 320 321 321 328 318 321 317 321 327 328 326 326 324 322 322 322 323 324 324 323 319 318 317
351 351 357 360 362 362 360 357 355 356 359 355 353 350 350 349 346 344 343 340 335 317 317 328 321 323 320 325 326 327 326 326 325 323 320 319 323 324 322 320 319 319 318
346 353 353 356 356 354 360 357 357 360 357 354 349 344 341 344 345 345 342 339 337 320 321 326 325 324 323 325 324 326 326 325 325 322 317 322 322 321 320 319 319 319 318
337 346 357 356 354 355 360 359 353 356 357 353 350 346 344 342 341 340 340 337 325 326 327 326 326 324 325 325 319 319 322 322 320 317 317 323 321 321 320 319 318 318 317
343 349 357 355 356 354 352 351 354 357 356 353 350 348 346 344 341 344 338 335 325 327 327 326 325 325 324 325 322 317 316 316 316 316 317 323 322 322 321 319 318 317 317
349 355 355 354 355 351 349 347 348 351 354 352 352 351 348 347 344 337 338 336 326 324 326 325 325 324 323 323 322 320 315 313 313 315 316 319 322 322 323 320 318 318 318
350 348 352 351 352 348 347 344 343 344 346 347 350 348 349 349 341 338 337 335 335 324 323 324 324 324 324 323 322 319 316 313 315 315 316 318 321 323 324 320 318 319 317
349 348 348 349 348 348 347 343 342 342 342 343 342 344 344 340 338 338 337 337 322 319 323 322 322 323 324 322 321 320 315 315 317 319 320 321 322 323 323 320 319 318 317
346 347 345 344 337 339 344 344 343 342 341 340 340 339 340 342 340 339 338 332 323 322 323 322 322 323 322 322 322 321 315 314 318 319 320 321 323 324 322 321 320 319 317
345 340 340 335 335 339 344 344 342 340 339 338 336 337 335 335 335 326 321 328 325 326 323 322 322 321 323 323 321 321 316 316 319 323 325 325 324 323 322 321 320 319 317
345 341 333 331 331 335 342 341 340 338 335 335 335 336 335 335 330 323 322 323 326 325 323 323 322 322 322 321 321 318 317 318 320 325 323 322 321 322 322 321 320 318 316
339 338 334 330 333 339 340 339 336 334 333 332 331 330 330 332 332 327 321 323 321 322 322 323 323 322 321 321 321 319 319 320 322 322 321 321 321 322 322 321 319 317 315
337 336 335 336 337 339 338 335 335 332 332 331 331 329 326 325 325 327 321 321 320 320 321 321 321 321 320 322 322 323 323 321 320 320 321 321 323 322 321 321 319 317 312
331 335 335 333 332 336 337 335 333 332 331 331 329 325 324 322 322 324 324 323 321 319 319 319 319 320 318 320 321 323 323 321 321 321 321 322 322 321 321 319 318 316 314
328 330 334 336 334 333 334 334 334 333 332 331 328 325 323 322 322 322 322 321 320 319 319 319 320 318 315 319 321 323 322 322 322 321 323 322 321 320 319 319 317 316 312
327 326 327 329 335 337 337 336 335 335 333 331 328 327 322 322 322 322 322 322 322 324 321 320 317 316 315 317 319 321 322 322 322 322 322 322 320 318 319 319 318 316 314
Wind_Speed
39 40 36 35 34 32 31 27 25 23 23 22 21 22 21 20 18 15 12 8 8 8 7 7 7 7 9 10 9 8 13 18 13 9 11 11 6 6 3 5 6 5 3
41 39 37 34 31 32 31 33 29 27 26 23 25 24 22 22 21 18 16 13 10 9 8 12 10 7 7 7 6 7 12 18 26 19 14 9 3 2 5 12 8 6 3
34 35 34 35 35 35 34 33 28 30 29 27 28 26 25 25 24 20 16 15 11 9 11 12 11 9 8 10 12 16 16 17 20 22 14 11 10 10 5 7 12 9 7
33 33 35 36 38 38 35 32 32 32 32 31 31 29 28 28 26 23 19 16 13 12 13 12 11 11 10 11 13 15 16 16 15 17 14 13 8 8 8 8 8 10 12
31 32 35 36 36 35 32 32 35 33 35 33 33 30 28 29 29 26 23 19 17 16 15 14 13 13 13 12 11 11 14 15 15 15 15 11 7 7 7 6 8 5 6
33 35 37 35 35 35 35 35 35 36 37 36 35 32 30 31 31 27 25 22 19 20 20 16 13 13 12 11 10 8 10 15 16 20 14 10 7 4 4 5 8 9 4
20 31 32 34 35 34 36 35 36 37 37 36 36 34 34 33 30 27 26 23 22 22 22 21 17 14 14 15 12 11 11 14 19 21 16 11 8 6 8 7 9 8 4
6 8 10 25 33 32 33 36 33 29 29 32 36 35 35 35 31 29 27 24 24 23 23 21 20 19 17 16 17 16 15 16 15 11 10 11 10 10 9 7 7 8 6
6 8 9 11 17 23 29 32 27 25 28 31 33 35 36 38 32 31 26 22 24 25 23 21 20 21 20 19 18 17 14 13 11 9 7 8 8 6 4 4 2 4 4
10 11 13 13 15 18 23 26 27 25 27 29 32 33 34 35 32 32 25 18 24 26 23 22 21 21 22 22 18 17 15 15 13 11 9 8 7 7 6 6 5 2 1
4 8 13 14 16 17 18 20 24 23 27 31 30 30 32 32 34 34 29 31 28 27 27 27 26 22 23 22 18 14 17 19 14 13 11 9 9 10 11 11 12 10 6
9 8 8 10 15 19 21 24 25 25 25 23 21 25 28 31 36 35 35 34 33 41 35 33 28 25 27 23 19 15 15 15 19 13 10 9 12 11 12 11 12 13 12
17 15 9 8 12 16 18 21 19 22 21 19 21 24 27 32 36 37 39 33 31 35 34 33 28 26 26 24 22 20 18 18 16 14 10 10 12 10 11 11 10 10 9
20 19 13 9 11 11 9 16 22 22 19 19 20 22 25 34 37 41 40 37 36 33 33 30 30 28 26 26 24 23 21 20 18 16 12 11 13 13 16 12 12 11 14
18 18 12 12 9 8 9 8 12 20 26 27 29 28 24 26 39 47 42 44 45 34 29 31 32 32 31 31 28 25 24 23 21 19 17 16 12 13 17 16 14 12 13
17 15 16 15 12 12 9 10 12 14 15 25 29 28 36 39 33 40 41 42 44 42 34 30 26 30 31 32 32 28 27 26 24 23 21 20 17 14 16 17 16 13 13
17 18 17 15 13 12 9 9 12 13 16 17 20 33 36 36 39 35 35 42 44 45 33 30 28 29 30 32 34 32 30 28 26 24 23 25 20 17 19 20 14 12 12
15 15 13 13 12 15 15 13 12 14 14 17 19 20 31 33 36 38 35 40 42 46 36 31 31 32 29 31 34 34 31 30 27 26 28 27 22 22 19 19 15 13 11
14 16 20 17 16 20 18 18 17 17 18 19 20 22 25 26 35 41 43 44 40 41 39 31 34 35 32 33 37 37 33 32 29 28 31 30 21 20 22 17 13 13 10
16 18 21 23 18 15 16 17 18 17 18 19 18 20 22 25 27 34 40 42 40 42 41 35 35 36 35 35 37 35 33 32 27 25 24 20 21 21 20 17 14 12 9
18 20 20 26 25 17 24 23 18 19 18 18 21 22 25 29 29 32 43 32 37 40 41 37 36 37 38 37 34 33 33 30 29 27 25 24 22 22 19 15 14 12 11
17 22 22 22 21 23 26 22 17 13 14 17 23 24 25 33 34 31 35 40 35 35 38 37 34 38 40 40 35 33 33 32 31 29 24 20 18 19 18 15 14 12 12
15 17 21 23 23 25 22 22 22 18 19 23 25 27 28 27 28 25 34 36 36 35 35 34 34 32 38 39 33 32 34 34 30 26 23 22 22 21 19 18 15 14 15
18 18 18 23 27 24 21 22 24 24 24 23 24 25 22 19 21 24 28 34 36 32 33 33 35 38 40 34 30 30 33 31 30 27 22 24 25 22 19 17 17 15 13
22 22 22 22 25 24 26 27 24 20 21 24 22 20 15 16 19 21 26 31 34 35 35 37 35 37 40 34 25 28 28 29 26 22 28 29 26 21 18 18 19 16 15
24 24 24 24 23 23 25 23 21 21 21 22 21 18 17 20 21 22 22 29 32 34 30 34 33 34 36 32 28 28 30 28 22 26 32 30 23 20 19 21 19 18 15
Wind_Direction
209 215 213 215 217 220 220 221 224 226 214 211 206 202 200 194 197 194 196 200 193 175 178 173 158 157 134 133 145 160 180 184 143 148 143 151 124 112 103 3 357 348 314
209 211 216 215 214 217 222 224 229 223 216 216 209 206 205 200 202 203 201 198 198 191 186 176 164 160 146 137 154 174 165 170 147 141 152 155 108 127 50 64 61 29 36
206 210 211 217 217 217 220 222 224 223 218 214 207 208 206 203 204 210 209 196 198 189 179 176 165 155 134 134 131 142 143 148 146 142 132 119 104 98 97 66 52 50 67
204 206 210 215 220 221 219 219 219 221 216 215 210 213 208 202 205 206 203 198 188 185 181 179 171 173 170 161 149 148 157 154 151 151 133 135 104 71 59 50 38 100 75
206 206 215 222 222 222 220 221 219 222 219 218 211 213 212 207 205 205 203 199 191 184 184 185 184 180 175 174 170 163 167 165 145 153 140 130 107 66 45 40 37 76 84
214 213 220 222 221 220 221 219 217 218 218 213 212 214 210 210 211 213 207 199 197 190 183 186 181 175 167 165 166 154 170 175 174 152 152 137 119 92 73 76 49 42 18
214 226 223 224 224 221 224 222 218 217 217 216 217 215 212 211 211 213 209 205 201 196 191 185 185 182 176 171 162 150 135 163 171 165 154 151 140 118 124 94 67 44 30
221 219 215 222 223 221 219 222 224 228 228 227 225 220 212 214 210 209 209 208 205 197 200 196 191 182 179 177 169 156 155 155 157 158 153 140 146 131 125 99 58 32 48
247 245 235 223 220 224 223 228 234 231 228 227 227 225 218 214 209 203 200 206 202 198 198 202 203 193 180 175 168 160 169 164 168 163 152 153 161 163 142 144 103 59 36
257 248 247 247 240 229 227 230 232 234 235 234 229 226 221 213 199 196 193 200 206 203 199 204 203 197 189 183 184 184 189 184 182 184 185 191 206 216 219 235 244 242 14
329 277 259 256 257 260 252 252 247 239 238 230 222 216 219 215 196 193 195 187 198 216 206 207 204 198 201 197 196 208 204 195 198 203 208 217 237 243 244 240 241 242 254
316 313 298 297 275 262 252 253 251 252 236 215 198 197 208 206 196 197 204 198 195 198 208 215 204 204 206 211 201 203 193 204 205 212 223 239 259 219 213 217 233 245 254
314 296 291 298 309 300 270 248 243 240 216 203 192 185 193 199 198 212 206 209 204 199 213 214 206 204 207 213 212 201 193 198 208 228 234 251 201 193 196 210 229 243 260
309 298 281 298 308 305 289 258 239 229 213 207 202 208 195 195 205 209 208 212 197 205 204 213 209 205 208 214 210 209 213 219 222 224 226 210 211 210 209 214 221 231 244
302 296 265 288 287 283 298 296 244 241 234 218 212 208 207 209 207 209 207 209 198 195 203 205 203 201 206 211 213 213 216 222 224 226 226 224 234 227 212 217 222 236 249
294 275 268 269 254 278 269 269 268 268 249 235 240 241 227 224 218 217 215 217 203 197 194 193 196 201 206 209 213 214 218 222 227 225 233 239 242 243 232 227 227 245 264
269 281 274 271 256 269 258 258 268 267 267 265 258 234 242 243 217 219 225 216 204 200 195 198 196 198 203 207 211 216 219 221 223 227 234 238 236 247 236 227 234 244 262
270 258 266 266 276 275 266 254 241 246 255 266 268 265 237 226 221 216 217 208 194 202 199 200 196 199 207 205 208 216 220 221 223 224 236 241 240 250 231 221 230 243 261
264 249 254 254 259 256 261 254 248 244 248 254 259 257 243 240 228 223 212 201 196 198 199 201 194 193 204 207 211 217 220 221 224 230 239 245 238 234 221 225 232 245 256
273 275 267 252 274 270 255 258 246 242 242 247 245 243 251 238 226 215 205 197 195 196 195 193 190 191 196 213 214 219 220 221 229 237 226 213 217 215 222 228 236 240 250
265 257 261 270 276 271 262 251 241 243 240 242 250 252 250 241 232 210 204 229 193 193 191 191 188 191 201 216 221 215 218 225 222 202 198 205 210 210 224 231 241 228 209
285 277 274 267 264 259 249 260 252 240 242 251 262 268 265 255 237 214 206 197 198 193 191 188 187 191 200 211 213 214 220 217 201 203 209 219 228 226 222 231 219 213 201
305 284 277 268 262 260 253 252 256 255 260 263 266 267 261 246 235 212 193 188 185 189 188 190 191 191 203 214 218 225 221 213 214 218 225 232 223 208 217 213 217 204 195
324 307 277 261 258 248 244 247 247 235 243 252 251 247 256 254 225 207 191 185 186 182 186 186 189 199 208 207 221 220 215 218 215 219 233 203 201 202 202 211 201 198 206
334 323 306 284 263 245 241 238 233 229 235 242 238 250 253 221 201 188 179 175 174 179 189 196 198 208 200 207 206 200 200 206 210 223 206 199 196 198 204 207 198 201 195
339 329 312 299 279 257 245 236 226 222 225 229 228 238 216 197 186 181 180 181 184 194 192 192 201 206 202 212 209 208 209 216 217 210 202 197 197 203 205 204 205 201 199